Time,TemperatureF,DewpointF,PressureIn,WindDirection,WindDirectionDegrees,WindSpeedMPH,WindSpeedGustMPH,Humidity,HourlyPrecipIn,Conditions,Clouds,dailyrainin,SolarRadiationWatts/m^2,SoftwareType,DateUTC
2013-05-15 00:02:00,50.0,34.0,-100.00,South,180,2.0,4.0,54,0.00,,,0.00,0.000000,,2013-05-15 06:02:00,
2013-05-15 00:11:00,50.0,34.0,-100.00,South,180,2.0,4.0,54,0.00,,,0.00,0.000000,,2013-05-15 06:11:00,
2013-05-15 00:21:00,50.0,34.0,-100.00,South,180,2.0,4.0,54,0.00,,,0.00,0.000000,,2013-05-15 06:21:00,
2013-05-15 00:42:00,48.0,35.0,-100.00,NW,320,2.0,5.0,60,0.00,,,0.00,0.000000,,2013-05-15 06:42:00,
2013-05-15 00:52:00,48.0,35.0,-100.00,NW,320,2.0,5.0,60,0.00,,,0.00,0.000000,,2013-05-15 06:52:00,
2013-05-15 01:01:00,48.0,35.0,-100.00,NW,320,2.0,5.0,60,0.00,,,0.00,0.000000,,2013-05-15 07:01:00,
2013-05-15 01:11:00,48.0,35.0,-100.00,NW,320,2.0,5.0,60,0.00,,,0.00,0.000000,,2013-05-15 07:11:00,
2013-05-15 01:21:00,48.0,35.0,-100.00,NW,320,2.0,5.0,60,0.00,,,0.00,0.000000,,2013-05-15 07:21:00,
2013-05-15 01:42:00,47.0,37.0,-100.00,West,269,2.0,3.0,67,0.00,,,0.00,0.000000,,2013-05-15 07:42:00,
2013-05-15 01:52:00,47.0,37.0,-100.00,West,269,2.0,3.0,67,0.00,,,0.00,0.000000,,2013-05-15 07:52:00,
2013-05-15 02:02:00,47.0,37.0,-100.00,West,269,2.0,3.0,67,0.00,,,0.00,0.000000,,2013-05-15 08:02:00,
2013-05-15 02:12:00,47.0,37.0,-100.00,West,269,2.0,3.0,67,0.00,,,0.00,0.000000,,2013-05-15 08:12:00,
2013-05-15 02:21:00,47.0,37.0,-100.00,West,269,2.0,3.0,67,0.00,,,0.00,0.000000,,2013-05-15 08:21:00,
2013-05-15 02:42:00,43.0,35.0,-100.00,WNW,289,3.0,3.0,73,0.00,,,0.00,0.000000,,2013-05-15 08:42:00,
2013-05-15 02:53:00,43.0,35.0,-100.00,WNW,289,3.0,3.0,73,0.00,,,0.00,0.000000,,2013-05-15 08:53:00,
2013-05-15 03:01:00,43.0,35.0,-100.00,WNW,289,3.0,3.0,73,0.00,,,0.00,0.000000,,2013-05-15 09:01:00,
2013-05-15 03:11:00,43.0,35.0,-100.00,WNW,289,3.0,3.0,73,0.00,,,0.00,0.000000,,2013-05-15 09:11:00,
2013-05-15 03:21:00,43.0,35.0,-100.00,WNW,289,3.0,3.0,73,0.00,,,0.00,0.000000,,2013-05-15 09:21:00,
2013-05-15 03:42:00,42.0,33.0,-100.00,West,275,2.0,3.0,71,0.00,,,0.00,0.000000,,2013-05-15 09:42:00,
2013-05-15 03:53:00,42.0,33.0,-100.00,West,275,2.0,3.0,71,0.00,,,0.00,0.000000,,2013-05-15 09:53:00,
2013-05-15 04:02:00,42.0,33.0,-100.00,West,275,2.0,3.0,71,0.00,,,0.00,0.000000,,2013-05-15 10:02:00,
2013-05-15 04:12:00,42.0,33.0,-100.00,West,275,2.0,3.0,71,0.00,,,0.00,0.000000,,2013-05-15 10:12:00,
2013-05-15 04:22:00,42.0,33.0,-100.00,West,275,2.0,3.0,71,0.00,,,0.00,0.000000,,2013-05-15 10:22:00,
2013-05-15 04:23:00,42.0,34.0,-100.00,WNW,290,1.0,3.0,74,0.00,,,0.00,0.000000,,2013-05-15 10:23:00,
2013-05-15 04:43:00,42.0,34.0,-100.00,WNW,290,1.0,3.0,74,0.00,,,0.00,0.000000,,2013-05-15 10:43:00,
2013-05-15 04:52:00,42.0,34.0,-100.00,WNW,290,1.0,3.0,74,0.00,,,0.00,0.000000,,2013-05-15 10:52:00,
2013-05-15 05:17:00,42.0,34.0,-100.00,WNW,290,1.0,3.0,74,0.00,,,0.00,0.000000,,2013-05-15 11:17:00,
2013-05-15 05:23:00,43.0,34.0,-100.00,NW,325,2.0,3.0,69,0.00,,,-99.99,0.000000,,2013-05-15 11:23:00,
2013-05-15 05:50:00,43.0,34.0,-100.00,NW,325,2.0,3.0,69,0.00,,,-99.99,0.000000,,2013-05-15 11:50:00,
2013-05-15 06:00:00,43.0,34.0,-100.00,NW,325,2.0,3.0,69,0.00,,,-99.99,0.000000,,2013-05-15 12:00:00,
2013-05-15 06:08:00,43.0,34.0,-100.00,NW,325,2.0,3.0,69,0.00,,,-99.99,0.000000,,2013-05-15 12:08:00,
2013-05-15 06:23:00,43.0,35.0,-100.00,NW,311,1.0,2.0,72,0.00,,,0.00,13.000000,,2013-05-15 12:23:00,
2013-05-15 06:49:00,43.0,35.0,-100.00,NW,311,1.0,2.0,72,0.00,,,0.00,13.000000,,2013-05-15 12:49:00,
2013-05-15 06:57:00,43.0,35.0,-100.00,NW,311,1.0,2.0,72,0.00,,,0.00,13.000000,,2013-05-15 12:57:00,
2013-05-15 07:09:00,43.0,35.0,-100.00,NW,311,1.0,2.0,72,0.00,,,0.00,13.000000,,2013-05-15 13:09:00,
2013-05-15 07:23:00,51.0,38.0,-100.00,East,97,1.0,3.0,62,0.00,,,0.00,174.000000,,2013-05-15 13:23:00,
2013-05-15 07:48:00,51.0,38.0,-100.00,East,97,1.0,3.0,62,0.00,,,0.00,174.000000,,2013-05-15 13:48:00,
2013-05-15 07:59:00,51.0,38.0,-100.00,East,97,1.0,3.0,62,0.00,,,0.00,174.000000,,2013-05-15 13:59:00,
2013-05-15 08:05:00,51.0,38.0,-100.00,East,97,1.0,3.0,62,0.00,,,0.00,174.000000,,2013-05-15 14:05:00,
2013-05-15 08:14:00,51.0,38.0,-100.00,East,97,1.0,3.0,62,0.00,,,0.00,174.000000,,2013-05-15 14:14:00,
2013-05-15 08:23:00,56.0,36.0,-100.00,SE,129,2.0,3.0,47,0.00,,,0.00,550.000000,,2013-05-15 14:23:00,
2013-05-15 08:51:00,56.0,36.0,-100.00,SE,129,2.0,3.0,47,0.00,,,0.00,550.000000,,2013-05-15 14:51:00,
2013-05-15 08:59:00,56.0,36.0,-100.00,SE,129,2.0,3.0,47,0.00,,,0.00,550.000000,,2013-05-15 14:59:00,
2013-05-15 09:08:00,56.0,36.0,-100.00,SE,129,2.0,3.0,47,0.00,,,0.00,550.000000,,2013-05-15 15:08:00,
2013-05-15 09:15:00,56.0,36.0,-100.00,SE,129,2.0,3.0,47,0.00,,,0.00,550.000000,,2013-05-15 15:15:00,
2013-05-15 09:23:00,60.0,36.0,-100.00,SSE,150,3.0,5.0,41,0.00,,,0.00,766.000000,,2013-05-15 15:23:00,
2013-05-15 10:01:00,60.0,36.0,-100.00,SSE,150,3.0,5.0,41,0.00,,,0.00,766.000000,,2013-05-15 16:01:00,
2013-05-15 10:10:00,60.0,36.0,-100.00,SSE,150,3.0,5.0,41,0.00,,,0.00,766.000000,,2013-05-15 16:10:00,
2013-05-15 10:21:00,60.0,36.0,-100.00,SSE,150,3.0,5.0,41,0.00,,,0.00,766.000000,,2013-05-15 16:21:00,
2013-05-15 10:23:00,60.0,34.0,-100.00,SSE,159,3.0,6.0,37,0.00,,,0.00,603.000000,,2013-05-15 16:23:00,
2013-05-15 10:51:00,60.0,34.0,-100.00,SSE,159,3.0,6.0,37,0.00,,,0.00,603.000000,,2013-05-15 16:51:00,
2013-05-15 11:09:00,60.0,34.0,-100.00,SSE,159,3.0,6.0,37,0.00,,,0.00,603.000000,,2013-05-15 17:09:00,
2013-05-15 11:18:00,60.0,34.0,-100.00,SSE,159,3.0,6.0,37,0.00,,,0.00,603.000000,,2013-05-15 17:18:00,
2013-05-15 11:23:00,68.0,33.0,-100.00,North,353,3.0,4.0,27,0.00,,,0.00,790.000000,,2013-05-15 17:23:00,
2013-05-15 11:49:00,68.0,33.0,-100.00,North,353,3.0,4.0,27,0.00,,,0.00,790.000000,,2013-05-15 17:49:00,
2013-05-15 11:59:00,68.0,33.0,-100.00,North,353,3.0,4.0,27,0.00,,,0.00,790.000000,,2013-05-15 17:59:00,
2013-05-15 12:15:00,68.0,33.0,-100.00,North,353,3.0,4.0,27,0.00,,,0.00,790.000000,,2013-05-15 18:15:00,
2013-05-15 12:23:00,65.0,29.0,-100.00,NNW,340,3.0,9.0,26,0.00,,,0.00,919.000000,,2013-05-15 18:23:00,
2013-05-15 12:49:00,65.0,29.0,-100.00,NNW,340,3.0,9.0,26,0.00,,,0.00,919.000000,,2013-05-15 18:49:00,
2013-05-15 12:57:00,65.0,29.0,-100.00,NNW,340,3.0,9.0,26,0.00,,,0.00,919.000000,,2013-05-15 18:57:00,
2013-05-15 13:09:00,65.0,29.0,-100.00,NNW,340,3.0,9.0,26,0.00,,,0.00,919.000000,,2013-05-15 19:09:00,
2013-05-15 13:15:00,65.0,29.0,-100.00,NNW,340,3.0,9.0,26,0.00,,,0.00,919.000000,,2013-05-15 19:15:00,
2013-05-15 13:23:00,54.0,39.0,-100.00,SW,230,7.0,12.0,56,0.02,,,0.02,162.000000,,2013-05-15 19:23:00,
2013-05-15 13:49:00,54.0,39.0,-100.00,SW,230,7.0,12.0,56,0.02,,,0.02,162.000000,,2013-05-15 19:49:00,
2013-05-15 13:57:00,54.0,39.0,-100.00,SW,230,7.0,12.0,56,0.02,,,0.02,162.000000,,2013-05-15 19:57:00,
2013-05-15 14:08:00,54.0,39.0,-100.00,SW,230,7.0,12.0,56,0.02,,,0.02,162.000000,,2013-05-15 20:08:00,
2013-05-15 14:17:00,54.0,39.0,-100.00,SW,230,7.0,12.0,56,0.02,,,0.02,162.000000,,2013-05-15 20:17:00,
2013-05-15 14:23:00,55.0,38.0,-100.00,ESE,111,2.0,10.0,52,0.00,,,0.02,181.000000,,2013-05-15 20:23:00,
2013-05-15 14:47:00,55.0,38.0,-100.00,ESE,111,2.0,10.0,52,0.00,,,0.02,181.000000,,2013-05-15 20:47:00,
2013-05-15 14:58:00,55.0,38.0,-100.00,ESE,111,2.0,10.0,52,0.00,,,0.02,181.000000,,2013-05-15 20:58:00,
2013-05-15 15:07:00,55.0,38.0,-100.00,ESE,111,2.0,10.0,52,0.00,,,0.02,181.000000,,2013-05-15 21:07:00,
2013-05-15 15:19:00,55.0,38.0,-100.00,ESE,111,2.0,10.0,52,0.00,,,0.02,181.000000,,2013-05-15 21:19:00,
2013-05-15 15:23:00,56.0,38.0,-100.00,North,6,4.0,7.0,51,0.00,,,0.02,351.000000,,2013-05-15 21:23:00,
2013-05-15 15:53:00,56.0,38.0,-100.00,North,6,4.0,7.0,51,0.00,,,0.02,351.000000,,2013-05-15 21:53:00,
2013-05-15 16:00:00,56.0,38.0,-100.00,North,6,4.0,7.0,51,0.00,,,0.02,351.000000,,2013-05-15 22:00:00,
2013-05-15 16:17:00,56.0,38.0,-100.00,North,6,4.0,7.0,51,0.00,,,0.02,351.000000,,2013-05-15 22:17:00,
2013-05-15 16:23:00,57.0,38.0,-100.00,East,94,2.0,7.0,49,0.00,,,0.02,400.000000,,2013-05-15 22:23:00,
2013-05-15 16:52:00,57.0,38.0,-100.00,East,94,2.0,7.0,49,0.00,,,0.02,400.000000,,2013-05-15 22:52:00,
2013-05-15 16:59:00,57.0,38.0,-100.00,East,94,2.0,7.0,49,0.00,,,0.02,400.000000,,2013-05-15 22:59:00,
2013-05-15 17:07:00,57.0,38.0,-100.00,East,94,2.0,7.0,49,0.00,,,0.02,400.000000,,2013-05-15 23:07:00,
2013-05-15 17:15:00,57.0,38.0,-100.00,East,94,2.0,7.0,49,0.00,,,0.02,400.000000,,2013-05-15 23:15:00,
2013-05-15 17:23:00,55.0,40.0,-100.00,East,98,2.0,4.0,57,0.00,,,0.02,211.000000,,2013-05-15 23:23:00,
2013-05-15 17:50:00,55.0,40.0,-100.00,East,98,2.0,4.0,57,0.00,,,0.02,211.000000,,2013-05-15 23:50:00,
2013-05-15 18:00:00,55.0,40.0,-100.00,East,98,2.0,4.0,57,0.00,,,0.02,211.000000,,2013-05-16 00:00:00,
2013-05-15 18:06:00,55.0,40.0,-100.00,East,98,2.0,4.0,57,0.00,,,0.02,211.000000,,2013-05-16 00:06:00,
2013-05-15 18:16:00,55.0,40.0,-100.00,East,98,2.0,4.0,57,0.00,,,0.02,211.000000,,2013-05-16 00:16:00,
2013-05-15 18:23:00,52.0,39.0,-100.00,South,191,2.0,5.0,62,0.00,,,0.02,123.000000,,2013-05-16 00:23:00,
2013-05-15 18:51:00,52.0,39.0,-100.00,South,191,2.0,5.0,62,0.00,,,0.02,123.000000,,2013-05-16 00:51:00,
2013-05-15 18:58:00,52.0,39.0,-100.00,South,191,2.0,5.0,62,0.00,,,0.02,123.000000,,2013-05-16 00:58:00,
2013-05-15 19:06:00,52.0,39.0,-100.00,South,191,2.0,5.0,62,0.00,,,0.02,123.000000,,2013-05-16 01:06:00,
2013-05-15 19:15:00,52.0,39.0,-100.00,South,191,2.0,5.0,62,0.00,,,0.02,123.000000,,2013-05-16 01:15:00,
2013-05-15 19:23:00,44.0,42.0,-100.00,NW,311,2.0,14.0,92,0.15,,,0.17,8.000000,,2013-05-16 01:23:00,
2013-05-15 19:49:00,44.0,42.0,-100.00,NW,311,2.0,14.0,92,0.15,,,0.17,8.000000,,2013-05-16 01:49:00,
2013-05-15 20:00:00,44.0,42.0,-100.00,NW,311,2.0,14.0,92,0.15,,,0.17,8.000000,,2013-05-16 02:00:00,
2013-05-15 20:07:00,44.0,42.0,-100.00,NW,311,2.0,14.0,92,0.15,,,0.17,8.000000,,2013-05-16 02:07:00,
2013-05-15 20:16:00,44.0,42.0,-100.00,NW,311,2.0,14.0,92,0.15,,,0.17,8.000000,,2013-05-16 02:16:00,
2013-05-15 20:23:00,43.0,42.0,-100.00,West,274,2.0,4.0,95,0.00,,,0.17,13.000000,,2013-05-16 02:23:00,
2013-05-15 21:07:00,43.0,42.0,-100.00,West,274,2.0,4.0,95,0.00,,,0.17,13.000000,,2013-05-16 03:07:00,
2013-05-15 21:23:00,41.0,40.0,-100.00,WNW,293,3.0,4.0,96,0.00,,,0.17,0.000000,,2013-05-16 03:23:00,
2013-05-15 21:47:00,41.0,40.0,-100.00,WNW,293,3.0,4.0,96,0.00,,,0.17,0.000000,,2013-05-16 03:47:00,
2013-05-15 21:56:00,41.0,40.0,-100.00,WNW,293,3.0,4.0,96,0.00,,,0.17,0.000000,,2013-05-16 03:56:00,
2013-05-15 22:02:00,41.0,40.0,-100.00,WNW,293,3.0,4.0,96,0.00,,,0.17,0.000000,,2013-05-16 04:02:00,
2013-05-15 22:12:00,41.0,40.0,-100.00,WNW,293,3.0,4.0,96,0.00,,,0.17,0.000000,,2013-05-16 04:12:00,
2013-05-15 22:42:00,41.0,40.0,-100.00,West,268,2.0,3.0,96,0.00,,,0.17,0.000000,,2013-05-16 04:42:00,
2013-05-15 22:53:00,41.0,40.0,-100.00,West,268,2.0,3.0,96,0.00,,,0.17,0.000000,,2013-05-16 04:53:00,
2013-05-15 23:02:00,41.0,40.0,-100.00,West,268,2.0,3.0,96,0.00,,,0.17,0.000000,,2013-05-16 05:02:00,
2013-05-15 23:12:00,41.0,40.0,-100.00,West,268,2.0,3.0,96,0.00,,,0.17,0.000000,,2013-05-16 05:12:00,
2013-05-15 23:22:00,41.0,40.0,-100.00,West,268,2.0,3.0,96,0.00,,,0.17,0.000000,,2013-05-16 05:22:00,
2013-05-15 23:42:00,39.0,38.0,-100.00,WNW,294,2.0,4.0,97,0.01,,,0.18,0.000000,,2013-05-16 05:42:00,
2013-05-15 23:52:00,39.0,38.0,-100.00,WNW,294,2.0,4.0,97,0.01,,,0.18,0.000000,,2013-05-16 05:52:00,